Regional Weather Roundup
Issued by NWS Charleston, SC

Current Version | Previous Version | Graphics & Text | Print | Product List | Glossary On
Versions: 1 2 3 4 5 6 7 8 9 10 11 12 13 14 15 16 17 18 19 20 21 22 23 24 25 26 27 28 29 30 31 32 33 34 35 36 37 38 39 40 41 42 43 44 45 46 47 48 49 50
000 ASUS42 KCHS 242213 RWRCHS REGIONAL WEATHER ROUNDUP NATIONAL WEATHER SERVICE CHARLESTON SC 600 PM EDT SUN JUL 24 2016 NOTE: "FAIR" INDICATES FEW OR NO CLOUDS BELOW 12,000 FEET WITH NO SIGNIFICANT WEATHER AND/OR OBSTRUCTIONS TO VISIBILITY. NOT ALL STATIONS ARE QUALITY CONTROLLED. USE DATA WITH CAUTION... ESPECIALLY DEWPOINT OBSERVATIONS. SCZ027-030-031-034>040-042>050-242300- ...SOUTHEAST SOUTH CAROLINA... CITY SKY/WX TMP DP RH WIND PRES REMARKS N CHARLESTON CLOUDY 83 74 74 SW6 30.02R WATERFRONT PRK N/A 86 76 72 NE5 30.00S HX 96 MOUNT PLEASANT FAIR 86 77 74 CALM 30.02F HX 97 JOHNS ISLAND FAIR 88 77 70 S6 30.02S HX 100 PINOPOLIS N/A 84 73 70 VRB3 29.94F HX 91 MONCKS CORNER FAIR 82 68 61 SE6 30.01S SUMMERVILLE FAIR 84 73 70 SE3 30.02 HX 91 BEAUFORT MCAS MOSUNNY 92 77 61 S5 30.00F HX 105 BEAUFORT ARPT FAIR 90 73 58 S8 30.01R HX 98 HILTON HEAD IS SUNNY 95 77 55 S8G15 30.02F HX 109 WALTERBORO PTCLDY 91 73 55 S9 30.01S HX 100 ALLENDALE FAIR 93 72 49 SE6 29.98S HX 100 ...SOUTHERN MIDLANDS AND PEE DEE... CITY SKY/WX TMP DP RH WIND PRES REMARKS GEORGETOWN FAIR 86 77 74 S6 30.03S HX 97 KINGSTREE FAIR 90 73 58 S7 30.00S HX 98 ORANGEBURG MOSUNNY 94 73 50 S10 29.99S HX 103 BARNWELL NOT AVBL AIKEN CLOUDY 93 68 43 E3 30.02S HX 97 MANNING FAIR 88 72 58 S8 30.00S HX 94 COLUMBIA PTSUNNY 97 68 38 S7 29.97F HX 102 SUMTER CLOUDY 96 71 43 SE8 29.97S HAZE HX 102 FLORENCE SUNNY 95 71 45 S7 29.99S HX 102 MYRTLE BEACH SUNNY 90 73 58 SW8 30.03S HX 98 N MYRTLE BEACH SUNNY 87 77 72 SW15 30.01F HX 99 $$ GAZ063-065-086>088-099>101-113>116-118-119-134>141-150-242300- ...SOUTHEAST GEORGIA... CITY SKY/WX TMP DP RH WIND PRES REMARKS SAVANNAH ARPT MOSUNNY 89 75 63 S7 30.00F HX 99 HUNTER AAF SUNNY 90 78 67 SE9 29.98F HX 104 FORT STEWART CLOUDY 77 73 88 CALM 29.99F STATESBORO MOSUNNY 91 76 61 SE5 30.00R HX 103 SYLVANIA NOT AVBL CLAXTON MOCLDY 89 75 63 SE10 30.00R HX 98 ...CSRA...CENTRAL AND FAR SOUTHEAST GEORGIA... CITY SKY/WX TMP DP RH WIND PRES REMARKS THOMSON NOT AVBL AUGUSTA-BUSH CLOUDY 97 67 37 E5 29.97S HX 101 AUGUSTA-DANIEL PTSUNNY 97 68 38 S8 29.99S HX 102 SWAINSBORO FAIR 97 64 34 CALM 29.98F HX 99 VIDALIA MOSUNNY 99 64 32 E5 29.98S HX 101 EASTMAN FAIR 94 58 30 CALM 30.00F HX 93 HAZLEHURST FAIR 97 68 38 CALM 29.97S HX 101 ALMA PTSUNNY 90 70 51 E13G24 30.00R HX 95 WAYCROSS RAIN 86 77 74 N20 30.02R HX 96 JESUP FAIR 84 79 84 SW8 30.01S HX 96 BAXLEY PTSUNNY 86 77 74 SE9 29.99R HX 97 BRUNSWICK SUNNY 91 72 52 SE7 30.01F HX 98 SAINT SIMONS SUNNY 90 74 59 SE13 30.00F HX 99 $$ SCZ027-028-034-036>038-045-046-048>050-GAZ119-141-242300- ...LAKE AND SUPPLEMENTAL COASTAL OBSERVATIONS... STATION/POSITION TIME TEMP WIND PRES WAVE SWELL AIR SEA DIR/SP/G HT/PER HT/PER/DIR (UTC) (F) (DEG/KT/KT) (MB) (FT/S) (FT/S/D) WINYAH BAY NOT AVBL LAKE MURRAY 2100 91 170/ 9/ 11 1014.6S ACE BASIN NERRS NOT AVBL FORT PULASKI 2100 89 88 150/ 6/ 10 1016.8F SAPELO ISLAND 2100 94 120/ 7 1016.0F $$ ANZ835-935-AMZ111-154-330-350-352-354-370-450-454-472-242300- ...C-MAN AND BUOY OBSERVATIONS... STATION/POSITION TIME TEMP WIND PRES WAVE SWELL AIR SEA DIR/SP/G HT/PER HT/PER/DIR (UTC) (F) (DEG/KT/KT) (MB) (FT/S) (FT/S/D) BUOY 41004 2150 85 86 180/ 8/ 10 1016.5S 2/ 9 2/130/ 9 BUOY 41008 2150 85 88 150/ 10/ 12 1016.4F 2/ 9 2/100/ 9 FOLLY BEACH CMAN 2200 85 180/ 12/ 13 1016.6F CAPERS NEARSHORE 2108 84 84 200/ 10/ 14 1016.6F FRIPP NEARSHORE 2108 86 88 180/ 12/ 16 1015.8F STATION/POSITION TIME TEMP WIND PRES WAVE SWELL AIR SEA DIR/SP/G HT/PER HT/PER/DIR (UTC) (F) (DEG/KT/KT) (MB) (FT/S) (FT/S/D) 5E ST. MARYS GA 2101 88 N/A 2/ 9 FRYING PAN BUOY 2100 85 87 200/ 10/ 12 1016.5F BUOY 41025 2050 85 85 230/ 14/ 16 1016.4 3/ 8 2/130/ 8 CAPE LOOKOUT NC 2200 86 210/ 9/ 12 1016.1R BUOY 41002 2150 84 86 200/ 4/ 6 1018.0R 2/ 8 2/ 90/ 8 BUOY 41010 2120 85 88 120/ 6/ 8 1017.9F ST AUGUSTINE FL 2200 84 88 140/ 14/ 15 1017.8R $$

USA.gov is the U.S. government's official web portal to all federal, state and local government web resources and services.